Change the Weather History Date:

Sunday, October 30, 2011

  Actual Average Record
Temperature  
Mean Temperature 39 °F 42 °F  
Max Temperature 41 °F 51 °F 80 °F (1950)
Min Temperature 37 °F 32 °F 7 °F (1925)
Degree Days  
Heating Degree Days 26 23  
Month to date heating degree days 427 528  
Since 1 July heating degree days 671 761  
Cooling Degree Days 0 0  
Month to date cooling degree days 18 0  
Year to date cooling degree days 655 575  
Moisture  
Dew Point 35 °F    
Average Humidity 76    
Maximum Humidity 100    
Minimum Humidity 51    
Precipitation  
Precipitation 0.39 in 0.05 in 2.40 in (1896)
Month to date precipitation 1.01 2.28  
Year to date precipitation 30.15 28.08  
Snow  
Snow 0.00 in 0.10 in 0.40 in (1955)
Month to date snowfall 0.0 0.4  
Since 1 July snowfall 0.0 0.4  
Since 1 September snowfall 0.0 0.4  
Snow Depth 0.00 in    
Sea Level Pressure  
Sea Level Pressure 29.87 in    
Wind  
Wind Speed 5 mph (ENE)    
Max Wind Speed 17 mph    
Max Gust Speed 22 mph    
Visibility 8 miles    
Events Rain    
T = Trace of Precipitation, MM = Missing Value Source: NWS Daily Summary

Daily Weather History Graph

Daily Weather History Graph

Search for Another Location

Airport or City:

Trip Planner

Search our weather history database for the weather conditions in past years. The results will help you decide how hot, cold, wet, or windy it might be!

Date:

Astronomy

Oct. 30, 2011 Rise Set
Actual Time 7:41 AM CDT 5:57 PM CDT
Civil Twilight 7:10 AM CDT 6:27 PM CDT
Nautical Twilight 6:36 AM CDT 7:02 PM CDT
Astronomical Twilight 6:02 AM CDT 7:36 PM CDT
Moon 12:08 PM CDT (10/30) 9:19 PM CDT (10/30)
Length of Visible Light 11h 17m
Length of Day
10h 16m
Waxing Crescent, 20% of the Moon is Illuminated
Oct 30
Waxing Crescent
Nov 2
First Quarter
Nov 10
Full
Nov 18
Last Quarter
Nov 25
New

Hourly Weather History & Observations

Time (CDT) Temp. Windchill Dew Point Humidity Pressure Visibility Wind Dir Wind Speed Gust Speed Precip Events Conditions
12:56 AM 39.0 °F - 25.0 °F 57% 29.98 in 10.0 mi Calm Calm - N/A   Overcast
1:56 AM 39.9 °F 35.1 °F 24.1 °F 53% 29.97 in 10.0 mi SSE 6.9 mph - N/A   Overcast
2:56 AM 39.9 °F 35.8 °F 25.0 °F 55% 29.95 in 10.0 mi East 5.8 mph - N/A   Overcast
3:56 AM 39.0 °F 36.8 °F 26.1 °F 60% 29.93 in 10.0 mi East 3.5 mph - N/A   Overcast
4:56 AM 41.0 °F 39.0 °F 24.8 °F 53% 29.89 in 10.0 mi ESE 3.5 mph - N/A   Overcast
5:56 AM 41.0 °F 35.2 °F 24.8 °F 53% 29.87 in 10.0 mi East 9.2 mph - N/A   Overcast
6:56 AM 39.9 °F 33.4 °F 27.0 °F 60% 29.89 in 10.0 mi ESE 10.4 mph - N/A   Overcast
7:56 AM 41.0 °F 34.7 °F 28.0 °F 60% 29.89 in 10.0 mi SE 10.4 mph - N/A   Overcast
8:56 AM 39.9 °F 33.9 °F 30.0 °F 68% 29.88 in 10.0 mi SE 9.2 mph - 0.00 in   Overcast
9:56 AM 37.9 °F 31.5 °F 34.0 °F 86% 29.88 in 6.0 mi SE 9.2 mph - 0.03 in Rain Rain
10:56 AM 37.4 °F 30.8 °F 35.6 °F 93% 29.83 in 6.0 mi East 9.2 mph - N/A Rain Rain
11:51 AM 37.4 °F 34.9 °F 35.6 °F 93% 29.83 in 5.0 mi East 3.5 mph - 0.12 in Rain Rain
11:56 AM 37.9 °F 35.5 °F 36.0 °F 93% 29.86 in 5.0 mi Variable 3.5 mph - 0.12 in Rain Light Rain
12:40 PM 39.2 °F 34.2 °F 37.4 °F 93% 29.81 in 6.0 mi East 6.9 mph - 0.04 in Rain Rain
12:56 PM 39.0 °F 35.7 °F 37.0 °F 93% 29.84 in 6.0 mi ESE 4.6 mph - 0.05 in Rain Light Rain
1:03 PM 39.2 °F 35.0 °F 37.4 °F 93% 29.81 in 7.0 mi East 5.8 mph - 0.01 in Rain Light Rain
1:56 PM 39.0 °F 35.7 °F 37.0 °F 93% 29.82 in 10.0 mi East 4.6 mph - 0.01 in   Overcast
2:13 PM 39.2 °F 35.9 °F 37.4 °F 93% 29.80 in 10.0 mi East 4.6 mph - N/A   Overcast
2:37 PM 39.2 °F 37.0 °F 37.4 °F 93% 29.80 in 10.0 mi East 3.5 mph - N/A   Overcast
2:56 PM 39.9 °F 36.7 °F 37.9 °F 93% 29.82 in 10.0 mi East 4.6 mph - N/A   Overcast
3:56 PM 39.2 °F - 37.4 °F 93% 29.81 in 7.0 mi Calm Calm - N/A Rain Light Rain
4:56 PM 39.9 °F - 39.0 °F 97% 29.84 in 6.0 mi Calm Calm - 0.02 in Rain Light Rain
5:23 PM 39.2 °F - 39.2 °F 100% 29.82 in 4.0 mi Calm Calm - 0.02 in Rain Light Rain
5:32 PM 39.2 °F - 39.2 °F 100% 29.83 in 4.0 mi Calm Calm - 0.02 in Rain Light Rain
5:56 PM 39.9 °F - 39.0 °F 97% 29.86 in 2.5 mi Calm Calm - 0.02 in Rain Light Rain
6:05 PM 39.2 °F - 39.2 °F 100% 29.84 in 4.0 mi Calm Calm - 0.01 in Rain Light Rain
6:17 PM 39.2 °F - 39.2 °F 100% 29.84 in 5.0 mi Calm Calm - 0.01 in Rain Light Rain
6:56 PM 39.0 °F 36.8 °F 37.9 °F 96% 29.88 in 6.0 mi NW 3.5 mph - 0.02 in Rain Light Rain
7:25 PM 39.2 °F 35.9 °F 37.4 °F 93% 29.86 in 8.0 mi NW 4.6 mph - 0.00 in   Overcast
7:39 PM 39.2 °F 37.0 °F 37.4 °F 93% 29.87 in 7.0 mi NW 3.5 mph - 0.00 in Rain Light Rain
7:56 PM 39.0 °F 36.8 °F 37.9 °F 96% 29.90 in 7.0 mi NW 3.5 mph - 0.00 in Rain Light Rain
8:01 PM 39.2 °F 37.0 °F 37.4 °F 93% 29.87 in 7.0 mi NW 3.5 mph - 0.00 in Rain Light Rain
8:43 PM 39.2 °F 37.0 °F 37.4 °F 93% 29.88 in 8.0 mi NW 3.5 mph - 0.00 in   Overcast
8:56 PM 39.0 °F 36.8 °F 37.9 °F 96% 29.90 in 7.0 mi NW 3.5 mph - 0.01 in Rain Light Rain
9:19 PM 39.2 °F 37.0 °F 37.4 °F 93% 29.88 in 6.0 mi North 3.5 mph - 0.00 in   Overcast
9:53 PM 39.2 °F 37.0 °F 37.4 °F 93% 29.89 in 6.0 mi NNW 3.5 mph - 0.00 in   Overcast
9:56 PM 37.9 °F 35.5 °F 37.0 °F 97% 29.91 in 6.0 mi NNW 3.5 mph - 0.00 in   Overcast
10:42 PM 37.4 °F - 37.4 °F 100% 29.90 in 9.0 mi Calm Calm - N/A   Overcast
10:56 PM 37.9 °F - 37.0 °F 97% 29.92 in 8.0 mi Calm Calm - N/A   Overcast
11:26 PM 37.4 °F 34.9 °F 37.4 °F 100% 29.90 in 9.0 mi NNW 3.5 mph - N/A   Overcast
11:56 PM 37.9 °F 35.5 °F 36.0 °F 93% 29.93 in 8.0 mi WNW 3.5 mph - N/A   Overcast